TimeCDT,TemperatureF,Dew PointF,Humidity,Sea Level PressureIn,VisibilityMPH,Wind Direction,Wind SpeedMPH,Gust SpeedMPH,PrecipitationIn,Events,Conditions,WindDirDegrees,DateUTC
12:15 AM,47.8,36.1,64,30.28,10.0,NNE,13.8,17.3,N/A,,Overcast,30,2012-10-12 05:15:00
12:35 AM,47.7,35.8,63,30.28,10.0,NNE,11.5,-,N/A,,Overcast,30,2012-10-12 05:35:00
12:55 AM,48.2,37.4,66,30.29,10.0,NE,9.2,-,N/A,,Overcast,40,2012-10-12 05:55:00
1:15 AM,47.3,36.7,67,30.29,10.0,NNE,6.9,-,N/A,,Overcast,30,2012-10-12 06:15:00
1:35 AM,46.4,37.4,71,30.29,10.0,NNE,6.9,-,N/A,,Mostly Cloudy,20,2012-10-12 06:35:00
1:55 AM,44.8,37.4,75,30.30,10.0,North,8.1,-,N/A,,Scattered Clouds,10,2012-10-12 06:55:00
2:15 AM,45.0,38.3,77,30.31,10.0,North,8.1,-,N/A,,Mostly Cloudy,10,2012-10-12 07:15:00
2:35 AM,45.9,37.8,73,30.31,10.0,North,8.1,-,N/A,,Overcast,10,2012-10-12 07:35:00
2:55 AM,46.4,34.0,62,30.32,10.0,North,16.1,-,N/A,,Overcast,10,2012-10-12 07:55:00
3:15 AM,45.0,30.7,57,30.33,10.0,North,12.7,-,N/A,,Mostly Cloudy,10,2012-10-12 08:15:00
3:35 AM,43.0,30.4,61,30.33,10.0,NNE,11.5,-,N/A,,Scattered Clouds,20,2012-10-12 08:35:00
3:55 AM,42.8,30.2,61,30.34,10.0,NNE,10.4,-,N/A,,Mostly Cloudy,20,2012-10-12 08:55:00
4:15 AM,42.1,30.0,62,30.34,10.0,NNE,12.7,-,N/A,,Scattered Clouds,20,2012-10-12 09:15:00
4:35 AM,41.0,30.0,65,30.35,10.0,NNE,11.5,-,N/A,,Clear,30,2012-10-12 09:35:00
4:55 AM,41.0,29.8,64,30.35,10.0,NNE,9.2,-,N/A,,Clear,20,2012-10-12 09:55:00
5:15 AM,40.1,29.8,67,30.35,10.0,NNE,9.2,-,N/A,,Clear,30,2012-10-12 10:15:00
5:35 AM,40.1,28.8,64,30.36,10.0,NNE,13.8,-,N/A,,Clear,30,2012-10-12 10:35:00
5:55 AM,39.6,28.0,63,30.37,10.0,NNE,11.5,-,N/A,,Clear,30,2012-10-12 10:55:00
6:15 AM,39.6,28.2,64,30.37,10.0,NE,15.0,18.4,N/A,,Clear,40,2012-10-12 11:15:00
6:35 AM,38.3,28.4,68,30.38,10.0,NNE,9.2,-,N/A,,Clear,20,2012-10-12 11:35:00
6:55 AM,36.5,28.6,73,30.39,10.0,NNE,9.2,-,N/A,,Clear,30,2012-10-12 11:55:00
7:35 AM,37.4,27.5,67,30.40,10.0,NNE,10.4,-,N/A,,Clear,30,2012-10-12 12:35:00
7:55 AM,38.8,27.7,64,30.40,10.0,NE,15.0,-,N/A,,Clear,40,2012-10-12 12:55:00
8:15 AM,39.6,27.7,62,30.41,10.0,NE,15.0,-,N/A,,Clear,40,2012-10-12 13:15:00
8:35 AM,41.0,28.6,61,30.42,10.0,NE,13.8,-,N/A,,Clear,50,2012-10-12 13:35:00
8:55 AM,42.1,29.5,61,30.43,10.0,NE,12.7,-,N/A,,Clear,40,2012-10-12 13:55:00
9:15 AM,43.7,30.2,59,30.43,10.0,ENE,6.9,-,N/A,,Clear,60,2012-10-12 14:15:00
9:35 AM,44.6,30.2,57,30.43,10.0,ENE,12.7,-,N/A,,Clear,70,2012-10-12 14:35:00
9:55 AM,46.4,32.0,57,30.43,10.0,ENE,12.7,-,N/A,,Clear,60,2012-10-12 14:55:00
10:15 AM,47.7,32.4,55,30.43,10.0,East,13.8,-,N/A,,Clear,80,2012-10-12 15:15:00
10:35 AM,49.1,32.9,54,30.43,10.0,East,11.5,-,N/A,,Clear,80,2012-10-12 15:35:00
10:55 AM,50.0,33.3,53,30.43,10.0,ENE,10.4,-,N/A,,Clear,60,2012-10-12 15:55:00
11:15 AM,51.1,32.7,50,30.43,10.0,East,10.4,-,N/A,,Clear,100,2012-10-12 16:15:00
11:35 AM,51.6,33.1,49,30.43,10.0,ESE,9.2,-,N/A,,Clear,110,2012-10-12 16:35:00
11:55 AM,52.7,33.3,48,30.43,10.0,ENE,5.8,-,N/A,,Clear,60,2012-10-12 16:55:00
12:15 PM,52.9,32.4,46,30.42,10.0,ENE,6.9,10.4,N/A,,Clear,70,2012-10-12 17:15:00
12:35 PM,53.6,30.2,41,30.42,10.0,SE,6.9,-,N/A,,Clear,140,2012-10-12 17:35:00
12:55 PM,53.6,28.8,39,30.41,10.0,East,8.1,-,N/A,,Clear,90,2012-10-12 17:55:00
1:35 PM,55.2,31.6,41,30.39,10.0,SE,9.2,-,N/A,,Clear,140,2012-10-12 18:35:00
1:55 PM,54.9,31.5,41,30.38,10.0,SE,10.4,-,N/A,,Clear,140,2012-10-12 18:55:00
2:15 PM,55.6,30.6,39,30.38,10.0,SE,6.9,20.7,N/A,,Clear,130,2012-10-12 19:15:00
2:35 PM,55.6,29.3,37,30.36,10.0,SE,8.1,-,N/A,,Clear,140,2012-10-12 19:35:00
2:55 PM,57.2,30.2,36,30.36,10.0,ESE,5.8,-,N/A,,Clear,120,2012-10-12 19:55:00
3:15 PM,57.4,29.5,35,30.35,10.0,ESE,6.9,-,N/A,,Clear,110,2012-10-12 20:15:00
3:35 PM,57.6,29.7,35,30.35,10.0,SE,5.8,-,N/A,,Clear,130,2012-10-12 20:35:00
3:55 PM,57.4,28.9,34,30.34,10.0,South,6.9,-,N/A,,Clear,170,2012-10-12 20:55:00
4:15 PM,57.2,29.1,34,30.33,10.0,ESE,8.1,-,N/A,,Clear,110,2012-10-12 21:15:00
4:35 PM,57.6,28.4,33,30.33,10.0,SSE,8.1,-,N/A,,Clear,160,2012-10-12 21:35:00
4:55 PM,57.4,28.9,34,30.33,10.0,SE,6.9,-,N/A,,Clear,130,2012-10-12 21:55:00
5:15 PM,57.2,29.1,34,30.33,10.0,SE,8.1,-,N/A,,Clear,130,2012-10-12 22:15:00
5:35 PM,57.2,28.4,33,30.32,10.0,SE,6.9,-,N/A,,Clear,140,2012-10-12 22:35:00
5:55 PM,55.4,28.4,36,30.31,10.0,ESE,10.4,-,N/A,,Clear,120,2012-10-12 22:55:00
6:15 PM,53.6,28.8,39,30.31,10.0,ESE,6.9,-,N/A,,Clear,120,2012-10-12 23:15:00
6:35 PM,52.7,28.4,39,30.31,10.0,ESE,6.9,-,N/A,,Clear,110,2012-10-12 23:35:00
6:55 PM,52.0,29.3,42,30.31,10.0,ESE,6.9,-,N/A,,Clear,110,2012-10-12 23:55:00
7:15 PM,48.9,29.7,47,30.30,10.0,East,6.9,-,N/A,,Clear,100,2012-10-13 00:15:00
7:35 PM,48.7,29.7,48,30.29,10.0,East,5.8,-,N/A,,Clear,100,2012-10-13 00:35:00
7:55 PM,48.2,30.2,50,30.29,10.0,East,8.1,-,N/A,,Clear,100,2012-10-13 00:55:00
8:15 PM,47.8,30.7,52,30.28,10.0,East,6.9,-,N/A,,Clear,100,2012-10-13 01:15:00
8:35 PM,47.3,30.9,53,30.28,10.0,East,6.9,-,N/A,,Clear,100,2012-10-13 01:35:00
8:55 PM,46.4,32.0,57,30.28,10.0,East,6.9,-,N/A,,Clear,100,2012-10-13 01:55:00
9:15 PM,46.8,31.1,55,30.27,10.0,ESE,6.9,-,N/A,,Clear,110,2012-10-13 02:15:00
9:35 PM,46.4,30.7,54,30.27,10.0,ESE,6.9,-,N/A,,Clear,110,2012-10-13 02:35:00
9:55 PM,46.4,30.9,55,30.26,10.0,East,6.9,-,N/A,,Clear,100,2012-10-13 02:55:00
10:15 PM,46.4,31.1,55,30.26,10.0,East,6.9,-,N/A,,Clear,90,2012-10-13 03:15:00
10:35 PM,46.9,31.3,55,30.26,10.0,ESE,5.8,-,N/A,,Clear,110,2012-10-13 03:35:00
10:55 PM,48.2,28.4,46,30.26,10.0,ESE,9.2,-,N/A,,Clear,120,2012-10-13 03:55:00
11:15 PM,47.3,28.9,49,30.26,10.0,ESE,8.1,-,N/A,,Clear,120,2012-10-13 04:15:00
11:35 PM,47.3,28.6,48,30.25,10.0,ESE,8.1,-,N/A,,Clear,120,2012-10-13 04:35:00
11:55 PM,46.9,28.9,50,30.24,10.0,SE,6.9,-,N/A,,Clear,130,2012-10-13 04:55:00